H1 CPF 2 NER 2024 9 29 9 273 01 glonass129 H2 1106402 9129 37868 2024 9 29 0 0 0 2024 10 2 23 45 0 900 1 1 0 0 0 1 H9 10 0 60582 0.00000 0 901992.720 -24803943.984 -5723309.517 10 0 60582 900.00000 0 845851.346 -23891701.467 -8782647.909 10 0 60582 1800.00000 0 920580.816 -22616593.996 -11670583.337 10 0 60582 2700.00000 0 1170144.887 -21018060.115 -14330712.249 10 0 60582 3600.00000 0 1629988.882 -19145739.576 -16711085.189 10 0 60582 4500.00000 0 2325290.373 -17057473.930 -18765237.625 10 0 60582 5400.00000 0 3269653.094 -14816977.265 -20453109.682 10 0 60582 6300.00000 0 4464301.121 -12491276.317 -21741835.686 10 0 60582 7200.00000 0 5897808.532 -10148028.906 -22606387.511 10 0 60582 8100.00000 0 7546376.534 -7852834.487 -23030059.110 10 0 60582 9000.00000 0 9374646.431 -5666650.464 -23004783.205 10 0 60582 9900.00000 0 11337013.774 -3643422.825 -22531274.767 10 0 60582 10800.00000 0 13379387.706 -1828029.917 -21618999.687 10 0 60582 11700.00000 0 15441320.756 -254624.258 -20285970.568 10 0 60582 12600.00000 0 17458418.836 1054560.048 -18558375.125 10 0 60582 13500.00000 0 19364929.741 2089886.876 -16470045.900 10 0 60582 14400.00000 0 21096401.312 2854459.129 -14061783.017 10 0 60582 15300.00000 0 22592297.944 3363718.572 -11380544.474 10 0 60582 16200.00000 0 23798466.346 3644524.464 -8478520.770 10 0 60582 17100.00000 0 24669348.260 3733752.772 -5412112.744 10 0 60582 18000.00000 0 25169848.788 3676477.430 -2240833.059 10 0 60582 18900.00000 0 25276783.755 3523812.251 973847.060 10 0 60582 19800.00000 0 24979847.262 3330505.717 4169683.512 10 0 60582 20700.00000 0 24282060.694 3152390.617 7284854.838 10 0 60582 21600.00000 0 23199685.924 3043795.979 10259145.128 10 0 60582 22500.00000 0 21761607.510 3055029.780 13035092.536 10 0 60582 23400.00000 0 20008210.324 3230037.492 15559082.467 10 0 60582 24300.00000 0 17989799.507 3604333.942 17782365.878 10 0 60582 25200.00000 0 15764627.993 4203294.465 19661984.679 10 0 60582 26100.00000 0 13396612.553 5040876.458 21161587.942 10 0 60582 27000.00000 0 10952831.666 6118824.854 22252124.658 10 0 60582 27900.00000 0 8500907.122 7426395.357 22912400.818 10 0 60582 28800.00000 0 6106375.931 8940608.268 23129490.773 10 0 60582 29700.00000 0 3830159.485 10627024.242 22898995.161 10 0 60582 30600.00000 0 1726233.134 12441012.074 22225140.000 10 0 60582 31500.00000 0 -160408.432 14329458.434 21120714.083 10 0 60582 32400.00000 0 -1795406.360 16232851.116 19606844.356 10 0 60582 33300.00000 0 -3156244.766 18087651.594 17712611.712 10 0 60582 34200.00000 0 -4232959.210 19828860.029 15474512.439 10 0 60582 35100.00000 0 -5028316.192 21392667.116 12935773.525 10 0 60582 36000.00000 0 -5557455.144 22719082.501 10145532.981 10 0 60582 36900.00000 0 -5847006.820 23754429.463 7157899.382 10 0 60582 37800.00000 0 -5933724.204 24453600.139 4030907.637 10 0 60582 38700.00000 0 -5862683.058 24781974.785 825390.732 10 0 60582 39600.00000 0 -5685128.026 24716922.053 -2396210.505 10 0 60582 40500.00000 0 -5456055.966 24248814.627 -5571075.623 10 0 60582 41400.00000 0 -5231640.075 23381514.982 -8637245.547 10 0 60582 42300.00000 0 -5066605.765 22132308.656 -11534850.283 10 0 60582 43200.00000 0 -5011671.808 20531286.284 -14207297.418 10 0 60582 44100.00000 0 -5111167.699 18620199.499 -16602396.158 10 0 60582 45000.00000 0 -5400930.716 16450838.666 -18673393.029 10 0 60582 45900.00000 0 -5906573.998 14083001.120 -20379897.468 10 0 60582 46800.00000 0 -6642200.813 11582136.206 -21688678.090 10 0 60582 47700.00000 0 -7609620.653 9016767.182 -22574313.449 10 0 60582 48600.00000 0 -8798100.981 6455799.325 -23019684.506 10 0 60582 49500.00000 0 -10184665.192 3965827.967 -23016299.583 10 0 60582 50400.00000 0 -11734923.809 1608559.730 -22564446.310 10 0 60582 51300.00000 0 -13404403.128 -561545.258 -21673168.704 10 0 60582 52200.00000 0 -15140314.371 -2499312.370 -20360071.248 10 0 60582 53100.00000 0 -16883687.905 -4170488.963 -18650955.206 10 0 60582 54000.00000 0 -18571781.895 -5552912.106 -16579295.787 10 0 60582 54900.00000 0 -20140663.546 -6637161.474 -14185571.742 10 0 60582 55800.00000 0 -21527854.224 -7426673.198 -11516461.718 10 0 60582 56700.00000 0 -22674927.544 -7937313.228 -8623924.125 10 0 60582 57600.00000 0 -23529951.947 -8196431.347 -5564179.238 10 0 60582 58500.00000 0 -24049676.272 -8241438.505 -2396613.935 10 0 60582 59400.00000 0 -24201367.911 -8117969.767 817369.369 10 0 60582 60300.00000 0 -23964228.028 -7877711.959 4015537.332 10 0 60582 61200.00000 0 -23330326.039 -7575988.581 7136021.178 10 0 60582 62100.00000 0 -22305015.686 -7269204.086 10118500.693 10 0 60582 63000.00000 0 -20906816.375 -7012254.841 12905354.839 10 0 60582 63900.00000 0 -19166765.460 -6856015.019 15442758.044 10 0 60582 64800.00000 0 -17127268.573 -6845002.102 17681702.540 10 0 60582 65700.00000 0 -14840495.437 -7015318.957 19578928.638 10 0 60582 66600.00000 0 -12366386.801 -7392957.936 21097746.604 10 0 60582 67500.00000 0 -9770353.699 -7992537.531 22208735.742 10 0 60582 68400.00000 0 -7120762.475 -8816524.496 22890308.386 10 0 60582 69300.00000 0 -4486307.626 -9854974.650 23129128.622 10 0 60582 70200.00000 0 -1933379.074 -11085804.540 22920377.916 10 0 60582 71100.00000 0 476469.155 -12475584.596 22267862.114 10 0 60582 72000.00000 0 2688845.588 -13980823.110 21183956.821 10 0 60582 72900.00000 0 4658548.008 -15549690.071 19689390.697 10 0 60582 73800.00000 0 6351206.615 -17124111.538 17812868.940 10 0 60582 74700.00000 0 7744475.275 -18642149.347 15590542.085 10 0 60582 75600.00000 0 8828720.678 -20040568.377 13065328.154 10 0 60582 76500.00000 0 9607179.704 -21257484.915 10286099.189 10 0 60582 77400.00000 0 10095577.305 -22234985.184 7306746.218 10 0 60582 78300.00000 0 10321219.881 -22921603.354 4185139.573 10 0 60582 79200.00000 0 10321601.499 -23274553.333 982004.141 10 0 60582 80100.00000 0 10142581.364 -23261618.153 -2240268.450 10 0 60582 81000.00000 0 9836209.748 -22862614.841 -5418846.867 10 0 60582 81900.00000 0 9458295.185 -22070370.279 -8491701.075 10 0 60582 82800.00000 0 9065817.458 -20891164.400 -11398831.358 10 0 60582 83700.00000 0 8714297.890 -19344619.930 -14083459.327 10 0 60582 84600.00000 0 8455240.720 -17463041.788 -16493155.672 10 0 60582 85500.00000 0 8333756.309 -15290233.178 -18580880.665 10 0 60583 0.00000 0 8386469.112 -12879838.237 -20305915.395 10 0 60583 900.00000 0 8639800.864 -10293280.042 -21634665.257 10 0 60583 1800.00000 0 9108702.920 -7597384.652 -22541317.126 10 0 60583 2700.00000 0 9795892.103 -4861787.552 -23008340.357 10 0 60583 3600.00000 0 10691622.501 -2156235.285 -23026819.828 10 0 60583 4500.00000 0 11774002.349 452105.386 -22596616.318 10 0 60583 5400.00000 0 13009841.766 2901217.862 -21726352.043 10 0 60583 6300.00000 0 14355994.422 5136578.666 -20433223.007 10 0 60583 7200.00000 0 15761135.312 7113176.186 -18742643.273 10 0 60583 8100.00000 0 17167898.514 8797122.643 -16687729.580 10 0 60583 9000.00000 0 18515283.924 10166794.392 -14308637.763 10 0 60583 9900.00000 0 19741230.975 11213455.704 -11651765.197 10 0 60583 10800.00000 0 20785250.783 11941343.167 -8768835.897 10 0 60583 11700.00000 0 21591006.193 12367210.465 -5715886.924 10 0 60583 12600.00000 0 22108731.878 12519355.738 -2552176.441 10 0 60583 13500.00000 0 22297393.738 12436175.167 660965.089 10 0 60583 14400.00000 0 22126498.176 12164305.770 3861318.310 10 0 60583 15300.00000 0 21577476.681 11756437.043 6986970.363 10 0 60583 16200.00000 0 20644588.943 11268884.326 9977499.851 10 0 60583 17100.00000 0 19335307.780 10759026.036 12775129.492 10 0 60583 18000.00000 0 17670170.445 10282712.070 15325825.454 10 0 60583 18900.00000 0 15682102.712 9891751.293 17580323.682 10 0 60583 19800.00000 0 13415243.474 9631582.471 19495065.047 10 0 60583 20700.00000 0 10923317.766 9539225.133 21033022.857 10 0 60583 21600.00000 0 8267624.213 9641595.295 22164408.257 10 0 60583 22500.00000 0 5514718.382 9954256.030 22867241.094 10 0 60583 23400.00000 0 2733885.706 10480655.198 23127775.985 10 0 60583 24300.00000 0 -5493.746 11211882.911 22940775.589 10 0 60583 25200.00000 0 -2636581.919 12126960.251 22309625.505 10 0 60583 26100.00000 0 -5097613.602 13193649.084 21246287.595 10 0 60583 27000.00000 0 -7334218.099 14369751.462 19771091.200 10 0 60583 27900.00000 0 -9301436.386 15604846.749 17912364.353 10 0 60583 28800.00000 0 -10965350.147 16842396.127 15705909.978 10 0 60583 29700.00000 0 -12304254.639 18022128.312 13194334.961 10 0 60583 30600.00000 0 -13309325.592 19082607.757 10426242.969 10 0 60583 31500.00000 0 -13984751.184 19963878.046 7455304.939 10 0 60583 32400.00000 0 -14347322.330 20610069.003 4339223.988 10 0 60583 33300.00000 0 -14425497.483 20971856.548 1138614.235 10 0 60583 34200.00000 0 -14257980.595 21008669.696 -2084184.587 10 0 60583 35100.00000 0 -13891872.086 20690549.119 -5266332.915 10 0 60583 36000.00000 0 -13380471.392 19999576.058 -8345732.374 10 0 60583 36900.00000 0 -12780825.122 18930808.507 -11262256.043 10 0 60583 37800.00000 0 -12151126.255 17492682.650 -13958941.938 10 0 60583 38700.00000 0 -11548076.547 15706860.582 -16383124.434 10 0 60583 39600.00000 0 -11024326.050 13607529.345 -18487479.528 10 0 60583 40500.00000 0 -10626100.332 11240180.080 -20230961.966 10 0 60583 41400.00000 0 -10391117.682 8659918.543 -21579614.783 10 0 60583 42300.00000 0 -10346885.811 5929378.388 -22507234.729 10 0 60583 43200.00000 0 -10509450.866 3116325.530 -22995880.484 10 0 60583 44100.00000 0 -10882651.747 291054.792 -23036214.109 10 0 60583 45000.00000 0 -11457910.752 -2476311.427 -22627669.823 10 0 60583 45900.00000 0 -12214568.357 -5118509.142 -21778447.970 10 0 60583 46800.00000 0 -13120746.654 -7573691.282 -20505335.624 10 0 60583 47700.00000 0 -14134703.392 -9787752.531 -18833358.808 10 0 60583 48600.00000 0 -15206617.942 -11716324.808 -16795274.582 10 0 60583 49500.00000 0 -16280732.451 -13326362.027 -14430914.337 10 0 60583 50400.00000 0 -17297756.760 -14597250.458 -11786392.377 10 0 60583 51300.00000 0 -18197435.020 -15521401.193 -8913196.311 10 0 60583 52200.00000 0 -18921165.604 -16104303.116 -5867177.825 10 0 60583 53100.00000 0 -19414564.158 -16364037.273 -2707464.073 10 0 60583 54000.00000 0 -19629862.535 -16330275.966 504688.824 10 0 60583 54900.00000 0 -19528043.654 -16042811.066 3707077.983 10 0 60583 55800.00000 0 -19080623.693 -15549675.260 6837749.035 10 0 60583 56700.00000 0 -18271007.982 -14904936.351 9836182.046 10 0 60583 57600.00000 0 -17095364.780 -14166257.770 12644446.166 10 0 60583 58500.00000 0 -15562981.067 -13392327.546 15208301.948 10 0 60583 59400.00000 0 -13696085.750 -12640262.901 17478231.605 10 0 60583 60300.00000 0 -11529147.322 -11963098.184 19410378.930 10 0 60583 61200.00000 0 -9107674.330 -11407460.093 20967382.384 10 0 60583 62100.00000 0 -6486566.969 -11011526.264 22119086.738 10 0 60583 63000.00000 0 -3728086.199 -10803351.648 22843120.787 10 0 60583 63900.00000 0 -899522.194 -10799632.114 23125330.723 10 0 60583 64800.00000 0 1929343.907 -11004957.022 22960061.077 10 0 60583 65700.00000 0 4688882.410 -11411582.694 22350277.509 10 0 60583 66600.00000 0 7312254.523 -11999737.601 21307528.112 10 0 60583 67500.00000 0 9737941.368 -12738448.310 19851742.555 10 0 60583 68400.00000 0 11912058.981 -13586853.795 18010871.037 10 0 60583 69300.00000 0 13790363.713 -14495955.261 15820367.871 10 0 60583 70200.00000 0 15339864.555 -15410730.138 13322527.464 10 0 60583 71100.00000 0 16539974.506 -16272523.021 10565683.408 10 0 60583 72000.00000 0 17383151.761 -17021613.915 7603284.475 10 0 60583 72900.00000 0 17875002.565 -17599855.734 4492864.155 10 0 60583 73800.00000 0 18033840.123 -17953269.075 1294923.083 10 0 60583 74700.00000 0 17889717.039 -18034483.176 -1928253.826 10 0 60583 75600.00000 0 17482971.491 -17804917.717 -5113821.852 10 0 60583 76500.00000 0 16862348.492 -17236610.572 -8199617.382 10 0 60583 77400.00000 0 16082776.215 -16313611.401 -11125389.351 10 0 60583 78300.00000 0 15202892.710 -15032879.436 -13833995.149 10 0 60583 79200.00000 0 14282429.319 -13404645.106 -16272535.638 10 0 60583 80100.00000 0 13379563.539 -11452218.367 -18393405.137 10 0 60583 81000.00000 0 12548355.370 -9211250.558 -20155234.258 10 0 60583 81900.00000 0 11836377.433 -6728480.245 -21523706.018 10 0 60583 82800.00000 0 11282640.524 -4060015.805 -22472228.540 10 0 60583 83700.00000 0 10915903.103 -1269227.250 -22982451.106 10 0 60583 84600.00000 0 10753436.360 1575663.628 -23044613.796 10 0 60583 85500.00000 0 10800296.489 4404193.161 -22657724.684 10 0 60584 0.00000 0 11049133.796 7146355.780 -21829562.321 10 0 60584 900.00000 0 11480545.280 9735282.544 -20576504.282 10 0 60584 1800.00000 0 12063953.549 12109782.952 -18923187.783 10 0 60584 2700.00000 0 12758973.469 14216649.713 -16902009.015 10 0 60584 3600.00000 0 13517206.682 16012628.064 -14552473.364 10 0 60584 4500.00000 0 14284386.724 17465970.937 -11920410.134 10 0 60584 5400.00000 0 15002782.989 18557517.304 -9057068.254 10 0 60584 6300.00000 0 15613761.346 19281251.502 -6018111.435 10 0 60584 7200.00000 0 16060393.155 19644323.121 -2862532.957 10 0 60584 8100.00000 0 16290002.929 19666529.580 348488.461 10 0 60584 9000.00000 0 16256547.953 19379285.720 3552769.575 10 0 60584 9900.00000 0 15922730.627 18824125.767 6688317.677 10 0 60584 10800.00000 0 15261755.775 18050802.076 9694517.383 10 0 60584 11700.00000 0 14258660.138 17115061.191 12513287.199 10 0 60584 12600.00000 0 12911159.097 16076190.666 15090184.780 10 0 60584 13500.00000 0 11229975.542 14994438.909 17375441.063 10 0 60584 14400.00000 0 9238636.995 13928415.123 19324904.958 10 0 60584 15300.00000 0 6972748.661 12932576.808 20900881.965 10 0 60584 16200.00000 0 4478771.287 12054908.426 22072852.057 10 0 60584 17100.00000 0 1812352.602 11334886.918 22818054.192 10 0 60584 18000.00000 0 -963720.811 10801817.991 23121926.958 10 0 60584 18900.00000 0 -3781869.006 10473612.144 22978397.149 10 0 60584 19800.00000 0 -6572267.155 10356051.580 22390010.395 10 0 60584 20700.00000 0 -9265493.988 10442579.307 21367900.424 10 0 60584 21600.00000 0 -11795172.668 10714620.522 19931596.129 10 0 60584 22500.00000 0 -14100496.235 11142424.482 18108668.273 10 0 60584 23400.00000 0 -16128533.639 11686393.548 15934220.527 10 0 60584 24300.00000 0 -17836220.694 12298845.548 13450232.424 10 0 60584 25200.00000 0 -19191952.502 12926137.045 10704764.835 10 0 60584 26100.00000 0 -20176709.781 13511059.298 7751041.571 10 0 60584 27000.00000 0 -20784670.574 13995406.370 4646423.637 10 0 60584 27900.00000 0 -21023280.137 14322606.612 1451295.343 10 0 60584 28800.00000 0 -20912774.658 14440305.160 -1772116.003 10 0 60584 29700.00000 0 -20485177.809 14302786.318 -4960963.213 10 0 60584 30600.00000 0 -19782811.938 13873130.829 -8053020.040 10 0 60584 31500.00000 0 -18856386.852 13125013.954 -10987913.748 10 0 60584 32400.00000 0 -17762747.734 12044065.403 -13708323.412 10 0 60584 33300.00000 0 -16562378.701 10628730.950 -16161118.493 10 0 60584 34200.00000 0 -15316769.258 8890597.044 -18298413.489 10 0 60584 35100.00000 0 -14085756.867 6854163.061 -20078516.455 10 0 60584 36000.00000 0 -12924959.721 4556069.702 -21466751.628 10 0 60584 36900.00000 0 -11883409.655 2043815.587 -22436139.418 10 0 60584 37800.00000 0 -11001486.099 -625983.914 -22967920.267 10 0 60584 38700.00000 0 -10309238.563 -3389722.135 -23051912.503 10 0 60584 39600.00000 0 -9825168.042 -6179221.077 -22686697.934 10 0 60584 40500.00000 0 -9555517.634 -8924343.981 -21879632.673 10 0 60584 41400.00000 0 -9494100.625 -11555690.859 -20646684.312 10 0 60584 42300.00000 0 -9622671.199 -14007264.289 -19012100.071 10 0 60584 43200.00000 0 -9911819.814 -16218994.559 -17007913.912 10 0 60584 44100.00000 0 -10322353.120 -18139019.798 -14673303.626 10 0 60584 45000.00000 0 -10807098.042 -19725627.344 -12053811.756 10 0 60584 45900.00000 0 -11313052.077 -20948777.413 -9200446.674 10 0 60584 46800.00000 0 -11783787.693 -21791147.834 -6168682.157 10 0 60584 47700.00000 0 -12162008.577 -22248658.896 -3017375.611 10 0 60584 48600.00000 0 -12392149.607 -22330459.124 192373.695 10 0 60584 49500.00000 0 -12422911.168 -22058375.212 3398404.257 10 0 60584 50400.00000 0 -12209621.669 -21465851.431 6538687.193 10 0 60584 51300.00000 0 -11716329.676 -20596424.697 9552513.910 10 0 60584 52200.00000 0 -10917538.703 -19501800.287 12381654.574 10 0 60584 53100.00000 0 -9799512.640 -18239609.230 14971466.277 10 0 60584 54000.00000 0 -8361097.664 -16870940.946 17271930.987 10 0 60584 54900.00000 0 -6614026.254 -15457753.497 19238604.936 10 0 60584 55800.00000 0 -4582690.129 -14060268.379 20833462.715 10 0 60584 56700.00000 0 -2303390.341 -12734457.074 22025621.309 10 0 60584 57600.00000 0 176906.068 -11529722.668 22791931.372 10 0 60584 58500.00000 0 2802253.532 -10486871.813 23117425.112 10 0 60584 59400.00000 0 5509792.220 -9636460.557 22995612.473 10 0 60584 60300.00000 0 8232106.408 -8997582.494 22428619.605 10 0 60584 61200.00000 0 10899781.970 -8577149.871 21427166.096 10 0 60584 62100.00000 0 13444059.437 -8369698.320 20010379.952 10 0 60584 63000.00000 0 15799474.564 -8357724.553 18205452.069 10 0 60584 63900.00000 0 17906377.964 -8512544.424 16047134.684 10 0 60584 64800.00000 0 19713229.530 -8795637.039 13577091.315 10 0 60584 65700.00000 0 21178571.811 -9160420.045 10843108.574 10 0 60584 66600.00000 0 22272598.978 -9554382.624 7898183.375 10 0 60584 67500.00000 0 22978254.328 -9921486.931 4799501.905 10 0 60584 68400.00000 0 23291808.597 -10204736.591 1607329.470 10 0 60584 69300.00000 0 23222893.073 -10348802.813 -1616167.199 10 0 60584 70200.00000 0 22793984.613 -10302595.460 -4808141.598 10 0 60584 71100.00000 0 22039363.246 -10021667.985 -7906308.056 10 0 60584 72000.00000 0 21003585.898 -9470351.706 -10850175.348 10 0 60584 72900.00000 0 19739540.898 -8623526.212 -13582247.278 10 0 60584 73800.00000 0 18306166.268 -7467948.125 -16049164.757 10 0 60584 74700.00000 0 16765929.535 -6003079.524 -18202765.078 10 0 60584 75600.00000 0 15182177.128 -4241378.991 -20001036.067 10 0 60584 76500.00000 0 13616466.933 -2208041.539 -21408945.235 10 0 60584 77400.00000 0 12125998.100 59802.423 -22399126.992 10 0 60584 78300.00000 0 10761247.526 2514395.608 -22952414.308 10 0 60584 79200.00000 0 9563913.127 5099114.696 -23058204.742 10 0 60584 80100.00000 0 8565250.334 7750609.038 -22714654.418 10 0 60584 81000.00000 0 7784870.875 10401226.961 -21928697.275 10 0 60584 81900.00000 0 7230052.823 12981627.568 -20715890.523 10 0 60584 82800.00000 0 6895588.773 15423468.411 -19100090.780 10 0 60584 83700.00000 0 6764175.986 17662056.763 -17112968.704 10 0 60584 84600.00000 0 6807329.362 19638854.261 -14793373.021 10 0 60584 85500.00000 0 6986776.100 21303731.296 -12186557.654 10 0 60585 0.00000 0 7256270.840 22616878.450 -9343288.437 10 0 60585 900.00000 0 7563752.893 23550297.726 -6318846.118 10 0 60585 1800.00000 0 7853752.768 24088811.931 -3171949.599 10 0 60585 2700.00000 0 8069946.106 24230554.781 36384.406 10 0 60585 3600.00000 0 8157746.735 23986921.943 3244019.363 10 0 60585 4500.00000 0 8066829.904 23381988.033 6388893.493 10 0 60585 5400.00000 0 7753480.055 22451415.738 9410208.211 10 0 60585 6300.00000 0 7182665.209 21240903.956 12249588.429 10 0 60585 7200.00000 0 6329751.648 19804240.559 14852193.549 10 0 60585 8100.00000 0 5181787.660 18201041.095 17167759.219 10 0 60585 9000.00000 0 3738302.833 16494267.216 19151551.360 10 0 60585 9900.00000 0 2011589.260 14747627.196 20765215.710 10 0 60585 10800.00000 0 26452.035 13022965.342 21977507.997 10 0 60585 11700.00000 0 -2180562.093 11377747.316 22764891.929 10 0 60585 12600.00000 0 -4562427.965 9862744.413 23111994.272 10 0 60585 13500.00000 0 -7063347.226 8520011.738 23011908.595 10 0 60585 14400.00000 0 -9620827.658 7381243.425 22466341.542 10 0 60585 15300.00000 0 -12168053.206 6466572.960 21485597.978 10 0 60585 16200.00000 0 -14636449.103 5783868.698 20088403.888 10 0 60585 17100.00000 0 -16958337.858 5328554.635 18301568.608 10 0 60585 18000.00000 0 -19069577.338 5083965.058 16159490.757 10 0 60585 18900.00000 0 -20912072.031 5022219.572 13703515.206 10 0 60585 19800.00000 0 -22436052.870 5105583.222 10981151.358 10 0 60585 20700.00000 0 -23602029.634 5288255.758 8045166.064 10 0 60585 21600.00000 0 -24382332.899 5518515.502 4952567.441 10 0 60585 22500.00000 0 -24762179.084 5741127.542 1763498.532 10 0 60585 23400.00000 0 -24740211.853 5899913.987 -1459937.671 10 0 60585 24300.00000 0 -24328495.246 5940376.283 -4654898.381 10 0 60585 25200.00000 0 -23551957.261 5812256.619 -7759041.366 10 0 60585 26100.00000 0 -22447306.333 5471927.444 -10711759.580 10 0 60585 27000.00000 0 -21061466.101 4884505.107 -13455384.002 10 0 60585 27900.00000 0 -19449594.791 4025595.266 -15936329.170 10 0 60585 28800.00000 0 -17672773.745 2882593.506 -18106157.027 10 0 60585 29700.00000 0 -15795463.917 1455483.945 -19922536.642 10 0 60585 30600.00000 0 -13882839.130 -242899.687 -21350079.838 10 0 60585 31500.00000 0 -11998109.948 -2187162.599 -22361035.613 10 0 60585 32400.00000 0 -10199952.054 -4340175.498 -22935829.579 10 0 60585 33300.00000 0 -8540147.992 -6654404.372 -23063438.196 10 0 60585 34200.00000 0 -7061541.522 -9073687.206 -22741591.166 10 0 60585 35100.00000 0 -5796389.838 -11535382.425 -21976799.148 10 0 60585 36000.00000 0 -4765181.453 -13972798.345 -20784207.557 10 0 60585 36900.00000 0 -3975967.361 -16317801.267 -19187280.736 10 0 60585 37800.00000 0 -3424230.968 -18503492.784 -17217324.184 10 0 60585 38700.00000 0 -3093299.353 -20466844.443 -14912855.569 10 0 60585 39600.00000 0 -2955275.552 -22151180.082 -12318838.132 10 0 60585 40500.00000 0 -2972449.760 -23508403.172 -9485792.573 10 0 60585 41400.00000 0 -3099127.439 -24500877.517 -6468805.594 10 0 60585 42300.00000 0 -3283795.274 -25102884.542 -3326455.112 10 0 60585 43200.00000 0 -3471532.214 -25301598.405 -119673.368 10 0 60585 44100.00000 0 -3606563.149 -25097540.335 3089429.958 10 0 60585 45000.00000 0 -3634847.372 -24504495.339 6238762.046 10 0 60585 45900.00000 0 -3506593.133 -23548896.602 9267436.169 10 0 60585 46800.00000 0 -3178593.073 -22268704.690 12116933.842 10 0 60585 47700.00000 0 -2616283.211 -20711829.199 14732218.649 10 0 60585 48600.00000 0 -1795439.839 -18934158.918 17062781.734 10 0 60585 49500.00000 0 -703443.695 -16997282.149 19063600.465 10 0 60585 50400.00000 0 659941.368 -14965991.122 20695993.345 10 0 60585 51300.00000 0 2282308.261 -12905672.895 21928356.285 10 0 60585 52200.00000 0 4138877.070 -10879693.389 22736767.253 10 0 60585 53100.00000 0 6193286.518 -8946881.499 23105448.533 10 0 60585 54000.00000 0 8398875.912 -7159216.037 23027077.992 10 0 60585 54900.00000 0 10700407.039 -5559810.214 22502943.162 10 0 60585 55800.00000 0 13036157.362 -4181276.546 21542934.301 10 0 60585 56700.00000 0 15340300.433 -3044539.800 20165375.211 10 0 60585 57600.00000 0 17545477.095 -2158147.658 18396693.221 10 0 60585 58500.00000 0 19585452.448 -1518108.541 16270932.597 10 0 60585 59400.00000 0 21397749.139 -1108264.454 13829118.527 10 0 60585 60300.00000 0 22926147.537 -901184.474 11118481.839 10 0 60585 61200.00000 0 24122947.821 -859542.546 8191557.617 10 0 60585 62100.00000 0 24950898.097 -937922.548 5105173.846 10 0 60585 63000.00000 0 25384705.900 -1084974.927 1919348.925 10 0 60585 63900.00000 0 25412067.432 -1245833.634 -1303880.553 10 0 60585 64800.00000 0 25034169.071 -1364690.216 -4501678.377 10 0 60585 65700.00000 0 24265638.006 -1387414.491 -7611648.711 10 0 60585 66600.00000 0 23133942.543 -1264108.605 -10573071.630 10 0 60585 67500.00000 0 21678266.407 -951483.644 -13328108.127 10 0 60585 68400.00000 0 19947904.236 -414955.370 -15822949.035 10 0 60585 69300.00000 0 18000246.324 369632.404 -18008883.385 10 0 60585 70200.00000 0 15898438.459 1414732.105 -19843263.711 10 0 60585 71100.00000 0 13708816.723 2720320.241 -21290348.119 10 0 60585 72000.00000 0 11498226.576 4273662.760 -22322001.919 10 0 60585 72900.00000 0 9331340.263 6049628.536 -22918244.829 10 0 60585 73800.00000 0 7268086.055 8011537.979 -23067633.378 10 0 60585 74700.00000 0 5361297.651 10112510.694 -22767471.678 10 0 60585 75600.00000 0 3654681.922 12297254.959 -22023847.580 10 0 60585 76500.00000 0 2181189.132 14504223.056 -20851494.763 10 0 60585 77400.00000 0 961852.137 16668041.287 -19273484.938 10 0 60585 78300.00000 0 5140.787 18722112.195 -17320757.647 10 0 60585 79200.00000 0 -693144.309 20601279.715 -15031498.273 10 0 60585 80100.00000 0 -1149437.357 22244445.731 -12450377.727 10 0 60585 81000.00000 0 -1391453.730 23597029.093 -9627669.795 10 0 60585 81900.00000 0 -1456760.209 24613165.194 -6618264.219 10 0 60585 82800.00000 0 -1390931.825 25257555.469 -3480595.459 10 0 60585 83700.00000 0 -1245374.965 25506891.181 -275508.317 10 0 60585 84600.00000 0 -1074909.801 25350793.815 2934917.513 10 0 60585 85500.00000 0 -935214.580 24792234.669 6088561.390 99